Regional Weather Roundup
Issued by NWS Midland/Odessa, TX

Current Version |  Previous Version |  Text Only |  Print | Product List |  Glossary On
Versions: 1 2 3 4 5 6 7 8 9 10 11 12 13 14 15 16 17 18 19 20 21 22 23 24 25 26 27 28 29 30 31 32 33 34 35 36 37 38 39 40 41 42 43 44 45 46 47 48 49 50
388
ASUS44 KMAF 300910
RWRMAF
MIDLAND AREA WEATHER ROUNDUP
NATIONAL WEATHER SERVICE MIDLAND TX
400 AM CDT THU MAY 30 2024

...IN SOUTHWEST TEXAS AND SOUTHEAST NEW MEXICO...

CITY           SKY/WX    TMP DP  RH WIND       PRES   REMARKS
ALPINE         CLEAR     71  60  67 S5        30.07F
ANDREWS        CLEAR     71  63  74 S7        29.97F
ARTESIA        CLEAR     68  54  60 S7        29.97S
BIG SPRING     CLEAR     75  64  69 S21       29.93F
CARLSBAD       CLEAR     72  54  53 S8        29.94F
DRYDEN           N/A     77  65  66 SE12      29.93S
FORT STOCKTON  CLEAR     76  62  62 S17G31    29.93S
GUAD PASS      NOT AVBL
HOBBS          CLEAR     72  61  68 MISG      29.98F
LAMESA         NOT AVBL
MARFA          CLEAR     61  50  67 NE3       30.07S
MIDLAND AIRPK    N/A     76  64  66 S17       29.95F
MIDLAND INTL   CLEAR     73  64  73 S15       29.95F
ODESSA         CLEAR     76  62  62 S13       29.97F
PECOS            N/A     75  61  61 E12       29.92R
PRESIDIO       CLEAR     81  65  59 N14       29.92R
SEMINOLE       CLEAR     71  63  75 S6        30.01F
SNYDER         PTCLDY    73  64  74 SE15      29.94F
WINK           CLEAR     77  61  57 SE14      29.93F
$$
...OTHER STATIONS IN TEXAS...

CITY           SKY/WX    TMP DP  RH WIND       PRES   REMARKS
ABILENE        PTCLDY    72  67  84 S12       29.93F
AMARILLO       CLOUDY    66  58  75 S13       29.98R
AUSTIN         CLOUDY    76  73  91 E3        29.95F
BROWNSVILLE    CLEAR     83  78  85 SE10      29.89F
CORPUS CHRISTI MOCLDY    80  79  96 SE7       29.92S
DALLAS FTW     MOCLDY    74  71  91 SE10      29.95F
DEL RIO        PTCLDY    84  70  62 SE13      29.89F
EL PASO        CLEAR     82   0   4 W13       29.96S
HOUSTON INT    CLOUDY    73  70  90 E5        29.96F
LUBBOCK        CLOUDY    70  65  84 E12       30.00S
SAN ANGELO     CLEAR     77  66  68 S10       29.94F
SAN ANTONIO    MOCLDY    79  72  79 SE10      29.96F
WACO           PTCLDY    75  72  90 SE10      29.95F
WICHITA FALLS  MOCLDY    65  61  87 SE8       30.01S
$$
...OTHER LOCATIONS IN NEW MEXICO...

CITY           SKY/WX    TMP DP  RH WIND       PRES   REMARKS
ALAMOGORDO     PTCLDY    59   1  10 SE6       29.97F
ALBUQUERQUE    CLEAR     65  35  33 E10       30.05S
CANNON AFB     PTCLDY    64  61  90 SE9       30.01S
CLOVIS         PTCLDY    64  62  93 SE10      30.03S
HOLLOMAN AFB   CLEAR     65   7  10 SE3       29.99F
ROSWELL        CLEAR     70  55  59 S8        29.94F
RUIDOSO        CLEAR     57  34  41 NE5       30.17S
SANTA FE       CLEAR     55  35  47 CALM      30.10S
TRUTH OR CONSE CLEAR     65  15  14 NW10      30.01F
TUCUMCARI      CLOUDY    64  29  26 E3        30.02F
$$